This is the latest recevied weather packets stored in our database for station/object AC4AG. If no packets are shown the sender has not sent any weather packets the latest 10 day(s).
| Time | Temp. | Humidity | Pressure | Rain* | Wind** | Luminosity | Snow |
|---|---|---|---|---|---|---|---|
| 1777316601 | 25° C | 56% | 1014.4 hPa | 0 mm | - | 746 W/m² | - |
| 1777316298 | 25° C | 53% | 1014.6 hPa | 0 mm | - | 663 W/m² | - |
| 1777315995 | 25° C | 54% | 1014.7 hPa | 0 mm | - | 835 W/m² | - |
| 1777315695 | 25° C | 54% | 1014.8 hPa | 0 mm | - | 830 W/m² | - |
| 1777315391 | 25° C | 53% | 1014.9 hPa | 0 mm | - | 852 W/m² | - |
| 1777315090 | 25° C | 54% | 1014.7 hPa | 0 mm | - | 668 W/m² | - |
| 1777314789 | 25° C | 55% | 1014.9 hPa | 0 mm | - | 542 W/m² | - |
| 1777314487 | 24.44° C | 55% | 1015 hPa | 0 mm | - | 738 W/m² | - |
| 1777314183 | 25° C | 53% | 1015 hPa | 0 mm | - | 581 W/m² | - |
| 1777313881 | 25° C | 54% | 1014.6 hPa | 0 mm | - | 605 W/m² | - |
| 1777313578 | 25° C | 53% | 1014.6 hPa | 0 mm | - | 645 W/m² | - |
| 1777313276 | 25° C | 54% | 1014.8 hPa | 0 mm | - | 893 W/m² | - |
| 1777312972 | 24.44° C | 55% | 1014.6 hPa | 0 mm | - | 767 W/m² | - |
| 1777312669 | 24.44° C | 55% | 1014.7 hPa | 0 mm | - | 591 W/m² | - |
| 1777312366 | 24.44° C | 56% | 1014.6 hPa | 0 mm | - | 763 W/m² | - |
| 1777312063 | 24.44° C | 57% | 1014.6 hPa | 0 mm | - | 494 W/m² | - |
| 1777311760 | 25° C | 57% | 1014.7 hPa | 0 mm | - | 378 W/m² | - |
| 1777311457 | 24.44° C | 56% | 1014.9 hPa | 0 mm | - | 801 W/m² | - |
| 1777311154 | 24.44° C | 56% | 1015.2 hPa | 0 mm | - | 720 W/m² | - |
| 1777310852 | 24.44° C | 57% | 1015.3 hPa | 0 mm | - | 840 W/m² | - |
| 1777310549 | 24.44° C | 56% | 1015.5 hPa | 0 mm | - | 618 W/m² | - |
| 1777310246 | 24.44° C | 58% | 1015.5 hPa | 0 mm | - | 938 W/m² | - |
| 1777309944 | 23.89° C | 61% | 1015.6 hPa | 0 mm | - | 936 W/m² | - |
| 1777309642 | 23.33° C | 60% | 1015.7 hPa | 0 mm | - | 550 W/m² | - |
| 1777309338 | 22.78° C | 60% | 1015.8 hPa | 0 mm | - | 415 W/m² | - |
* Rain latest hour (hover to see other rain measurements)
** Current wind speed in m/s (hover to see current wind gust speed)